Вернуться в каталог

GONETS-M 24

АктивенСвязьPO
NORAD 54151·PAYLOAD·🇷🇺 Russia

Запущен Oct 22, 2022 с Vostochny Cosmodrome

Loading…

Ближайшие Пролёты (ближайшие 24 часа)

TLE

СвежийSource: Space-Track

Эпоха: Sep 14, 2026, 14:05 UTC

1 54151U 22139B   26257.58725975  .00000028  00000-0  13074-3 0  9991
2 54151  82.4952 291.7431 0017279  41.1328 319.1051 12.42894012176759

Отслеживайте GONETS-M 24 в реальном времени с AllMySat

Download on the App Store